#timestamp,LO_Frequency,Hit,StdDev 
1516820415.4,286047003.8,N
1516820435.2,286047002.6,N
1516820455.0,286046996.9,N
1516820455.9,286046996.9,N
1516820475.8,286047002.0,N
1516820495.6,286047006.6,N
1516820515.5,286047009.2,N
1516820535.3,286047008.9,N
1516820555.1,286047006.1,N
1516820575.9,286047008.7,N
1516820595.7,286047005.3,N
1516820615.6,286047009.1,N
1516820635.4,286047008.5,N
1516820655.2,286047006.5,N
1516820675.1,286047004.5,N
1516820676.0,286047004.5,N
1516820695.8,286047003.5,N
1516820715.6,286047003.0,N
1516820735.5,286047002.9,N
1516820755.3,286047005.0,N
1516820775.2,286047003.5,N
1516820795.0,286047005.8,N
1516820795.9,286047005.8,N
1516820815.7,286047006.2,N
1516820835.6,286047006.6,N
1516820855.4,286047008.7,N
1516820875.3,286047005.4,N
1516820895.1,286047006.3,N
1516820915.8,286047009.0,N
1516820935.7,286047009.3,Y
1516820955.5,286046998.5,P
1516820975.4,286047001.9,N
1516820995.2,286047000.5,N
1516821015.0,286047003.7,N
1516821015.9,286047003.7,N
1516821035.8,286047001.4,N
1516821055.6,286047002.6,N
1516821075.4,286047002.1,N
1516821095.3,286047005.4,N
1516821115.1,286047003.5,N
1516821135.9,286047000.4,N
1516821155.7,286046995.2,N
1516821175.5,286046995.3,N
1516821195.4,286046999.6,N
1516821215.2,286047002.8,N
1516821235.0,286046999.6,N
1516821235.9,286046999.6,N
1516821255.8,286046997.6,N
1516821275.6,286046997.0,N
1516821295.5,286046997.7,N
1516821315.3,286046999.3,N
1516821335.1,286046999.9,N
1516821355.9,286047000.0,N
1516821375.7,286047005.4,N
1516821395.5,286047007.4,N
1516821415.4,286046999.6,N
1516821435.2,286046998.4,N
1516821455.1,286046998.2,N
1516821456.0,286046998.2,N
1516821475.8,286046998.2,N
1516821495.6,286047000.8,N
1516821515.5,286046995.5,N
1516821535.3,286046997.6,N
1516821555.1,286046999.0,N
1516821575.9,286046996.1,N
1516821595.7,286046990.6,Y
1516821615.6,286046996.3,P
1516821635.4,286046997.7,N
1516821655.2,286046992.8,P
1516821675.1,286046990.8,Y
1516821676.0,286046990.8,P
1516821695.8,286046997.6,N
1516821715.7,286047000.7,N
1516821735.5,286047001.9,N
1516821755.3,286047000.8,N
1516821775.2,286046995.7,N
1516821795.0,286046995.5,N
1516821795.9,286046995.5,N
1516821815.8,286046998.0,N
1516821835.6,286046996.9,N
1516821855.4,286047000.8,N
1516821875.3,286047002.6,N
1516821895.1,286046996.8,N
1516821915.8,286046996.3,N
1516821935.7,286046995.6,N
1516821955.5,286046998.1,N
1516821975.4,286046995.7,N
1516821995.2,286046992.3,N
1516822015.0,286046999.2,N
1516822015.9,286046999.2,N
1516822035.8,286046998.0,N
1516822055.6,286047001.2,N
1516822075.5,286047000.9,N
1516822095.3,286046999.9,N
1516822115.1,286047001.3,N
1516822135.9,286047003.8,N
1516822155.7,286047007.1,N
1516822175.5,286047002.0,N
1516822195.4,286047003.1,N
1516822215.2,286047008.8,N
1516822235.1,286047002.0,N
1516822236.0,286047002.0,N
1516822255.8,286047002.3,N
1516822275.6,286046999.8,N
1516822295.5,286046997.4,N
1516822315.3,286046992.4,N
1516822335.1,286046993.3,N
1516822355.9,286047000.8,N
1516822375.7,286046996.9,N
1516822395.6,286046996.7,N
1516822415.4,286046999.7,N
1516822435.2,286047001.6,N
1516822455.1,286047004.2,N
1516822456.0,286047004.2,N
1516822475.8,286047005.2,N
1516822495.6,286047003.2,N
1516822515.5,286046998.9,N
1516822535.3,286046995.9,N
1516822555.2,286046997.6,N
1516822575.9,286047000.7,N
1516822595.7,286046998.0,N
1516822615.6,286047000.4,N
1516822635.4,286046996.8,N
1516822655.2,286046997.6,N
1516822675.1,286046997.5,N
1516822676.0,286046997.5,N
1516822695.8,286046998.9,N
1516822715.7,286046999.4,N
1516822735.5,286046995.6,N
1516822755.3,286046999.0,N
1516822775.2,286046996.8,N
1516822795.0,286046999.3,N
1516822795.9,286046999.3,N
1516822815.8,286047001.1,N
1516822835.6,286046999.3,N
1516822855.4,286046996.2,N
1516822875.3,286046989.1,Y
1516822895.1,286046993.9,P
1516822915.8,286046991.7,P
1516822935.7,286046994.1,N
1516822955.5,286046999.2,N
1516822975.4,286046997.6,N
1516822995.2,286046995.9,N
1516823015.0,286046991.7,Y
1516823015.9,286046991.7,P
1516823035.8,286046995.1,N
1516823055.6,286046991.7,P
1516823075.4,286046996.4,N
1516823095.3,286046997.5,N
1516823115.1,286046999.9,N
1516823135.9,286047002.6,N
1516823155.7,286047002.6,N
1516823175.5,286047002.5,N
1516823195.4,286047003.9,N
1516823215.2,286047006.6,N
1516823235.0,286047006.1,N
1516823235.9,286047006.1,N
1516823255.8,286047006.5,N
1516823275.6,286047005.9,N
1516823295.5,286047002.8,N
1516823315.3,286047003.6,N
1516823335.1,286047006.1,N
1516823355.9,286047006.3,N
1516823375.7,286047008.4,N
1516823395.6,286047007.3,N
1516823415.4,286047005.1,N
1516823435.2,286047004.9,N
1516823455.1,286047002.9,N
1516823456.0,286047002.9,N
1516823475.8,286047004.6,N
1516823495.6,286047007.7,N
1516823515.5,286047013.8,N
1516823535.3,286047013.0,N
1516823555.2,286047013.5,N
1516823575.9,286047008.2,N
1516823595.7,286047000.3,N
1516823615.6,286047000.5,N
1516823635.4,286047005.2,N
1516823655.2,286047012.1,Y
1516823675.1,286047005.7,P
1516823676.0,286047005.7,P
1516823695.8,286047004.3,P
1516823715.7,286047004.0,Y
1516823735.5,286046999.9,P
1516823755.3,286046997.3,N
1516823775.2,286046998.7,N
1516823795.0,286047002.6,N
1516823795.9,286047002.6,N
1516823815.8,286047001.5,N
1516823835.6,286047000.3,N
1516823855.4,286046996.3,N
1516823875.3,286046994.1,N
1516823895.1,286046994.5,N
1516823915.8,286046991.4,N
1516823935.7,286046985.3,Y
1516823955.5,286046985.4,P
1516823975.4,286046981.2,N
1516823995.2,286046981.3,N
